Location: Buch
(50.1863°N, 11.0141°E)
Time: 18:49:50
(UTC+00:00)

Meteor 2-10 - Pass Details

Date: 18 January 2020
Orbit: 737 x 869 km, 81.2° (Epoch: 25 February)

Event Time Altitude Azimuth Distance (km) Brightness Sun altitude
Rises 05:40:36 0° 194° (SSW) 3,406 7.4 -13.5°
Reaches altitude 10° 05:43:03 10° 196° (SSW) 2,459 6.6 -13.1°
Maximum altitude 05:48:38 78° 283° (WNW) 848 4.1 -12.2°
Drops below altitude 10° 05:54:04 10° 10° (N) 2,392 6.5 -11.4°
Sets 05:56:25 0° 12° (NNE) 3,306 7.2 -11.1°
